Theta_e
309 308 308 307 305 305 308 313 312 311 312 313 313 312 309 306 303 301 300 299 297 298
304 304 305 304 303 302 302 301 301 301 306 308 310 309 309 307 304 302 300 300 300 298
301 301 302 301 301 299 299 299 298 297 300 302 305 305 306 306 304 302 301 301 299 298
298 299 299 299 299 298 297 297 296 296 299 301 301 303 303 303 303 300 300 299 298 297
297 297 297 297 297 296 296 295 295 294 294 298 299 300 300 300 301 298 297 297 296 296
295 296 296 296 296 295 295 294 292 292 291 294 295 296 297 298 298 298 298 297 294 295
294 294 295 295 294 293 293 293 291 290 290 289 291 291 291 291 293 294 295 294 294 294
292 293 292 292 291 290 290 289 289 288 287 287 287 287 286 288 290 290 291 290 290 291
288 287 287 288 288 288 288 287 287 286 286 286 286 289 291 289 287 288 288 288 287 286
285 285 286 286 286 286 287 286 286 285 284 284 284 289 291 290 286 287 287 287 286 284
284 284 285 284 285 285 284 284 283 283 283 282 283 289 290 290 287 286 286 286 285 285
282 281 282 282 283 283 281 281 280 279 280 279 281 287 289 289 286 285 284 285 284 284
281 279 279 280 281 279 275 280 279 280 278 281 283 287 288 288 286 284 283 283 283 283
279 278 278 278 275 275 279 281 283 282 283 283 283 284 287 289 285 284 282 282 281 282
Wind_Speed
5 4 5 5 4 4 5 7 7 8 8 8 9 10 10 9 11 13 13 16 13 11
4 5 6 6 5 4 5 4 5 6 7 8 8 5 7 8 10 11 12 13 14 12
3 4 4 3 5 5 4 5 6 6 6 7 9 8 8 8 9 11 9 10 13 13
4 4 4 4 5 4 4 6 6 7 7 9 9 8 9 10 9 11 11 10 11 13
5 4 5 5 6 5 6 5 7 6 7 8 9 8 10 11 10 10 12 11 12 13
4 5 6 7 7 6 6 7 6 7 8 9 9 9 10 11 10 11 12 11 12 13
6 6 7 7 7 7 7 7 6 7 8 8 8 8 7 7 8 8 9 9 10 10
7 6 6 7 7 7 7 7 7 7 7 6 6 5 7 7 8 9 9 7 8 9
8 8 7 7 8 7 7 7 6 7 7 6 5 13 15 11 8 8 8 8 7 6
8 9 9 7 7 8 8 6 7 7 6 8 7 14 16 16 7 8 9 9 7 6
7 9 9 9 8 7 5 6 6 6 7 6 7 14 16 15 8 7 8 8 9 9
5 7 8 10 10 9 6 5 6 4 6 6 6 13 14 12 6 7 7 6 7 8
8 6 7 6 7 4 3 6 4 6 5 7 8 11 14 12 5 7 6 5 6 11
7 7 8 7 4 5 4 5 6 6 5 6 6 8 13 15 6 7 5 5 4 5
Wind_Direction
184 194 205 195 191 199 203 216 212 208 214 214 210 205 200 200 204 203 213 216 213 214
216 211 217 216 197 199 202 201 207 205 213 228 239 219 204 212 213 210 210 217 221 218
249 251 261 247 229 214 220 206 207 217 216 227 229 223 222 230 223 218 215 216 218 218
329 312 293 280 282 250 226 223 221 217 219 226 220 219 221 231 228 221 224 215 212 218
333 321 293 279 270 260 253 233 230 220 220 223 233 222 219 225 223 218 225 222 221 222
306 291 286 274 268 264 263 252 230 214 218 215 217 223 226 228 226 225 230 224 220 223
320 298 284 282 276 262 253 257 242 230 230 216 213 220 222 221 230 232 231 228 223 224
319 305 295 290 282 269 257 249 244 243 232 222 208 214 218 225 234 234 235 226 224 220
330 327 320 308 298 290 275 255 243 244 237 231 232 231 228 218 217 221 224 235 227 216
330 321 315 307 302 292 284 271 248 239 223 232 228 238 237 231 217 220 220 217 209 206
330 324 319 317 309 298 280 266 259 251 240 239 246 243 237 230 220 222 223 217 210 207
319 315 319 318 316 311 294 282 264 255 250 237 246 249 245 239 216 228 229 218 202 202
315 301 298 293 299 282 263 274 282 277 252 250 253 248 240 234 208 222 216 204 206 206
301 301 293 296 276 270 279 279 279 270 269 253 245 257 252 243 215 215 212 205 197 202